Home   Weather   Leiden   Past weeks

Flag for Netherlands Past Weather in Leiden, Netherlands — Yesterday and Last 2 Weeks

Now
25 °F

Ice fog.


Feels Like: 25 °F
Forecast: 39 / 47 °F
Wind: 1 mph from Northeast

Location: Rotterdam Zestienhoven Airport

Current Time: Dec 6, 2016 at 2:02:20 am

Latest Report: Dec 6, 2016 at 1:25 am


Visibility: 2 mi

Pressure: 30.33 "Hg

Humidity: 100%

Dew Point: 25 °F

Location of LeidenLocation

Past Weather in Leiden — Graph

°F

Leiden Temperature Yesterday

Maximum temperature yesterday: 43 °F (at 1:25 pm)
Minimum temperature yesterday: 23 °F (at 2:55 am)
Average temperature yesterday: 30 °F

High & Low Weather Summary for the Past Weeks

 TemperatureHumidityPressure
High57 °F (Nov 21, 11:55 am)100% (Nov 21, 1:25 am)30.60 "Hg (Nov 21, 1:25 am)
Low21 °F (Nov 29, 10:55 pm)52% (Nov 29, 2:25 pm)29.36 "Hg (Nov 21, 2:55 pm)
Average40 °F86%30.19 "Hg
* Reported Nov 21 12:25 am — Dec 6 12:55 am, Leiden, Weather by CustomWeather, © 2016

Note: Actual official high and low records may vary slightly from our data, if they occured in-between our weather recording intervals... More about our weather records

Advertising

Leiden Weather History for the Previous 24 Hours

Scroll right to see more
 ConditionsComfort  
Time TempWeatherWind HumidityBarometerVisibility
12:55 am
Tue, Dec 6
27 °FIce fog.1 mph100%30.33 "Hg2 mi
12:25 am27 °FIce fog.1 mph100%30.33 "Hg2 mi
11:55 pm
Mon, Dec 5
27 °FIce fog.No wind100%30.33 "Hg2 mi
11:25 pm27 °FIce fog.1 mph100%30.33 "Hg3 mi
10:55 pm28 °FClear.1 mph100%30.33 "Hg4 mi
10:25 pm28 °FIce fog.1 mph100%30.33 "Hg3 mi
9:55 pm28 °FClear.No wind100%30.33 "Hg4 mi
9:25 pm28 °FIce fog.1 mph100%30.33 "Hg2 mi
8:55 pm28 °FClear.2 mph100%30.33 "Hg5 mi
8:25 pm28 °FClear.1 mph100%30.33 "Hg4 mi
7:55 pm28 °FClear.No wind100%30.33 "Hg5 mi
7:25 pm30 °FChilly.1 mph93%30.33 "Hg6 mi
6:55 pm30 °FChilly.2 mph93%30.30 "HgN/A
6:25 pm32 °FChilly.2 mph87%30.30 "HgN/A
5:55 pm32 °FClear.5 mph87%30.30 "HgN/A
5:25 pm32 °FChilly.2 mph87%30.30 "HgN/A
4:55 pm36 °FClear.3 mph81%30.30 "HgN/A
4:25 pm36 °FClear.3 mph81%30.30 "HgN/A
3:55 pm36 °FChilly.2 mph81%30.30 "HgN/A
3:25 pm39 °FChilly.3 mph75%30.27 "HgN/A
2:55 pm41 °FQuite cool.3 mph70%30.27 "HgN/A
2:25 pm41 °FQuite cool.3 mph66%30.27 "HgN/A
1:55 pm41 °FQuite cool.2 mph66%30.30 "HgN/A
1:25 pm43 °FClear.2 mph61%30.30 "HgN/A
12:55 pm39 °FChilly.1 mph70%30.30 "HgN/A
12:25 pm39 °FClear.2 mph70%30.30 "HgN/A
11:55 am37 °FChilly.3 mph75%30.30 "HgN/A
11:25 am36 °FChilly.2 mph75%30.30 "HgN/A
10:55 am32 °FChilly.3 mph87%30.30 "HgN/A
10:25 am30 °FChilly.3 mph86%30.30 "HgN/A
9:55 am28 °FChilly.1 mph86%30.30 "HgN/A
9:25 am27 °FClear.2 mph86%30.30 "HgN/A
8:55 am25 °FCold.3 mph93%30.30 "HgN/A
8:25 am25 °FCold.3 mph86%30.30 "HgN/A
7:55 am27 °FChilly.5 mph86%30.27 "HgN/A
7:25 am25 °FCold.5 mph86%30.27 "HgN/A
6:55 am25 °FClear.3 mph86%30.27 "HgN/A
6:25 am25 °FClear.5 mph86%30.27 "HgN/A
5:55 am23 °FClear.5 mph93%30.27 "HgN/A
5:25 am27 °FChilly.3 mph86%30.27 "HgN/A
4:55 am25 °FCold.5 mph86%30.27 "HgN/A
4:25 am25 °FCold.3 mph86%30.27 "HgN/A
3:55 am23 °FCold.3 mph93%30.30 "HgN/A
3:25 am25 °FCold.3 mph93%30.30 "HgN/A
2:55 am23 °FClear.6 mph93%30.30 "HgN/A
2:25 am25 °FClear.3 mph93%30.30 "HgN/A
Weather by CustomWeather, © 2016

See weather overviewHow to use our weather pages